• In Deutschland
  • Länderverzeichnis
  • Für 7 Tage
  • Wassertemperatur
  • Satellitenkarten
  • Wetterkarte
  • Widgets
  • user-avatar
    Anmelden

    Stündliche Wetter Naftalan

    Heute, 16 Januar, Dienstag

    Zeit Temperatur Niederschläge Wind Luftdruck Luftfeuchtigkeit
    00:00 0°C° 0 mm 4 m/S 775 mmHg 79%
    01:00 0°C° 0 mm 4 m/S 775 mmHg 80%
    02:00 +1°C° 0 mm 3 m/S 775 mmHg 80%
    03:00 +1°C° 0 mm 3 m/S 775 mmHg 80%
    04:00 +1°C° 0 mm 3 m/S 775 mmHg 80%
    05:00 +1°C° 0 mm 3 m/S 775 mmHg 80%
    06:00 +1°C° 0 mm 3 m/S 775 mmHg 80%
    07:00 +2°C° 0 mm 3 m/S 775 mmHg 78%
    08:00 +3°C° 0 mm 3 m/S 775 mmHg 75%
    09:00 +3°C° 0 mm 3 m/S 775 mmHg 71%
    10:00 +4°C° 0 mm 4 m/S 774 mmHg 70%
    11:00 +5°C° 0 mm 4 m/S 774 mmHg 68%
    12:00 +5°C° 0 mm 4 m/S 774 mmHg 66%
    13:00 +5°C° 0 mm 4 m/S 773 mmHg 67%
    14:00 +5°C° 0 mm 5 m/S 773 mmHg 69%
    15:00 +5°C° 0 mm 5 m/S 772 mmHg 70%
    16:00 +3°C° 0 mm 5 m/S 772 mmHg 72%
    17:00 +3°C° 0 mm 5 m/S 772 mmHg 73%
    18:00 +3°C° 0 mm 5 m/S 772 mmHg 75%
    19:00 +4°C° 0 mm 4 m/S 772 mmHg 76%
    20:00 +4°C° 0 mm 4 m/S 772 mmHg 77%
    21:00 +4°C° 0 mm 4 m/S 772 mmHg 78%
    22:00 +4°C° 0,1 mm 4 m/S 771 mmHg 79%
    23:00 +4°C° 0,1 mm 3 m/S 771 mmHg 80%

    Morgen, 17 Januar, Mittwoch

    Zeit Temperatur Niederschläge Wind Luftdruck Luftfeuchtigkeit
    00:00 +4°C° 0,1 mm 3 m/S 770 mmHg 80%
    01:00 +3°C° 0,1 mm 3 m/S 770 mmHg 81%
    02:00 +4°C° 0,1 mm 2 m/S 770 mmHg 82%
    03:00 +4°C° 0,1 mm 2 m/S 770 mmHg 83%
    04:00 +4°C° 0 mm 2 m/S 769 mmHg 83%
    05:00 +4°C° 0 mm 2 m/S 769 mmHg 83%
    06:00 +4°C° 0 mm 2 m/S 769 mmHg 84%
    07:00 +4°C° 0 mm 2 m/S 769 mmHg 82%
    08:00 +4°C° 0 mm 2 m/S 768 mmHg 80%
    09:00 +4°C° 0 mm 2 m/S 768 mmHg 78%
    10:00 +5°C° 0 mm 2 m/S 768 mmHg 75%
    11:00 +6°C° 0 mm 2 m/S 767 mmHg 71%
    12:00 +7°C° 0 mm 2 m/S 766 mmHg 68%
    13:00 +7°C° 0 mm 2 m/S 766 mmHg 67%
    14:00 +8°C° 0 mm 1 m/S 766 mmHg 66%
    15:00 +8°C° 0 mm 1 m/S 765 mmHg 65%
    16:00 +8°C° 0 mm 1 m/S 765 mmHg 68%
    17:00 +7°C° 0 mm 1 m/S 765 mmHg 71%
    18:00 +7°C° 0 mm 1 m/S 765 mmHg 74%
    19:00 +7°C° 0 mm 1 m/S 765 mmHg 74%
    20:00 +5°C° 0 mm 2 m/S 765 mmHg 74%
    21:00 +5°C° 0 mm 2 m/S 765 mmHg 75%
    22:00 +5°C° 0 mm 2 m/S 764 mmHg 75%
    23:00 +5°C° 0 mm 2 m/S 764 mmHg 75%

    übermorgen, 18 Januar, Donnerstag

    Zeit Temperatur Niederschläge Wind Luftdruck Luftfeuchtigkeit
    00:00 +3°C° 0 mm 3 m/S 764 mmHg 75%
    01:00 +3°C° 0 mm 3 m/S 764 mmHg 76%
    02:00 +3°C° 0 mm 3 m/S 763 mmHg 76%
    03:00 +3°C° 0 mm 3 m/S 763 mmHg 77%
    04:00 +3°C° 0 mm 3 m/S 763 mmHg 77%
    05:00 +2°C° 0 mm 3 m/S 763 mmHg 78%
    06:00 +2°C° 0 mm 3 m/S 763 mmHg 78%
    07:00 +3°C° 0 mm 3 m/S 763 mmHg 75%
    08:00 +3°C° 0 mm 3 m/S 763 mmHg 71%
    09:00 +4°C° 0 mm 3 m/S 763 mmHg 67%
    10:00 +5°C° 0 mm 3 m/S 762 mmHg 63%
    11:00 +8°C° 0 mm 3 m/S 761 mmHg 58%
    12:00 +9°C° 0 mm 3 m/S 761 mmHg 53%
    13:00 +10°C° 0 mm 3 m/S 760 mmHg 52%
    14:00 +10°C° 0 mm 2 m/S 759 mmHg 51%
    15:00 +10°C° 0 mm 2 m/S 758 mmHg 50%
    16:00 +9°C° 0 mm 2 m/S 758 mmHg 52%
    17:00 +8°C° 0 mm 2 m/S 758 mmHg 54%
    18:00 +7°C° 0 mm 2 m/S 758 mmHg 55%
    19:00 +7°C° 0 mm 3 m/S 758 mmHg 55%
    20:00 +5°C° 0 mm 3 m/S 758 mmHg 54%
    21:00 +5°C° 0 mm 3 m/S 757 mmHg 53%
    22:00 +4°C° 0 mm 3 m/S 757 mmHg 53%
    23:00 +4°C° 0 mm 4 m/S 757 mmHg 53%

    19 Januar, Freitag

    Zeit Temperatur Niederschläge Wind Luftdruck Luftfeuchtigkeit
    00:00 +4°C° 0 mm 4 m/S 757 mmHg 52%
    01:00 +4°C° 0 mm 4 m/S 757 mmHg 52%
    02:00 +4°C° 0 mm 4 m/S 757 mmHg 52%
    03:00 +4°C° 0 mm 4 m/S 757 mmHg 52%
    04:00 +4°C° 0 mm 4 m/S 756 mmHg 53%
    05:00 +3°C° 0 mm 4 m/S 756 mmHg 53%
    06:00 +3°C° 0 mm 4 m/S 756 mmHg 53%
    07:00 +5°C° 0 mm 3 m/S 757 mmHg 51%
    08:00 +7°C° 0 mm 3 m/S 757 mmHg 49%
    09:00 +8°C° 0 mm 3 m/S 758 mmHg 47%
    10:00 +10°C° 0 mm 3 m/S 758 mmHg 43%
    11:00 +11°C° 0 mm 3 m/S 758 mmHg 40%
    12:00 +13°C° 0 mm 3 m/S 758 mmHg 37%
    13:00 +13°C° 0 mm 3 m/S 758 mmHg 37%
    14:00 +14°C° 0 mm 3 m/S 758 mmHg 38%
    15:00 +15°C° 0 mm 2 m/S 758 mmHg 38%
    16:00 +14°C° 0 mm 2 m/S 759 mmHg 42%
    17:00 +12°C° 0 mm 3 m/S 760 mmHg 46%
    18:00 +10°C° 0 mm 3 m/S 761 mmHg 50%
    19:00 +10°C° 0 mm 4 m/S 762 mmHg 52%
    20:00 +9°C° 0 mm 6 m/S 763 mmHg 55%
    21:00 +9°C° 0 mm 7 m/S 763 mmHg 58%
    22:00 +8°C° 0 mm 7 m/S 764 mmHg 60%
    23:00 +8°C° 0 mm 7 m/S 765 mmHg 62%

    20 Januar, Samstag

    Zeit Temperatur Niederschläge Wind Luftdruck Luftfeuchtigkeit
    00:00 +6°C° 0 mm 7 m/S 766 mmHg 65%
    01:00 +6°C° 0 mm 7 m/S 766 mmHg 67%
    02:00 +6°C° 0 mm 7 m/S 767 mmHg 69%
    03:00 +5°C° 0 mm 7 m/S 767 mmHg 71%
    04:00 +5°C° 0 mm 6 m/S 768 mmHg 72%
    05:00 +5°C° 0 mm 6 m/S 769 mmHg 73%
    06:00 +5°C° 0 mm 6 m/S 769 mmHg 74%
    07:00 +5°C° 0 mm 6 m/S 770 mmHg 71%
    08:00 +7°C° 0 mm 6 m/S 770 mmHg 69%
    09:00 +8°C° 0 mm 5 m/S 771 mmHg 67%
    10:00 +8°C° 0 mm 5 m/S 771 mmHg 62%
    11:00 +10°C° 0 mm 4 m/S 771 mmHg 57%
    12:00 +11°C° 0 mm 3 m/S 771 mmHg 52%
    13:00 +12°C° 0 mm 3 m/S 771 mmHg 50%
    14:00 +13°C° 0 mm 2 m/S 771 mmHg 47%
    15:00 +14°C° 0 mm 2 m/S 771 mmHg 44%
    16:00 +13°C° 0 mm 2 m/S 771 mmHg 50%
    17:00 +12°C° 0 mm 2 m/S 772 mmHg 56%
    18:00 +10°C° 0 mm 3 m/S 772 mmHg 62%
    19:00 +9°C° 0 mm 3 m/S 772 mmHg 66%
    20:00 +9°C° 0 mm 3 m/S 772 mmHg 69%
    21:00 +8°C° 0 mm 3 m/S 773 mmHg 73%
    22:00 +8°C° 0 mm 2 m/S 773 mmHg 74%
    23:00 +8°C° 0 mm 2 m/S 772 mmHg 75%

    21 Januar, Sonntag

    Zeit Temperatur Niederschläge Wind Luftdruck Luftfeuchtigkeit
    00:00 +8°C° 0 mm 1 m/S 772 mmHg 75%
    01:00 +8°C° 0 mm 1 m/S 772 mmHg 75%
    02:00 +8°C° 0 mm 1 m/S 772 mmHg 74%
    03:00 +8°C° 0 mm 1 m/S 772 mmHg 73%
    04:00 +7°C° 0 mm 1 m/S 772 mmHg 71%
    05:00 +7°C° 0 mm 1 m/S 772 mmHg 70%
    06:00 +6°C° 0 mm 2 m/S 772 mmHg 68%
    07:00 +7°C° 0 mm 2 m/S 772 mmHg 63%
    08:00 +9°C° 0 mm 2 m/S 772 mmHg 58%
    09:00 +10°C° 0 mm 2 m/S 773 mmHg 54%
    10:00 +12°C° 0 mm 2 m/S 772 mmHg 50%
    11:00 +13°C° 0 mm 2 m/S 771 mmHg 47%
    12:00 +14°C° 0 mm 2 m/S 771 mmHg 43%
    13:00 +15°C° 0 mm 2 m/S 771 mmHg 42%
    14:00 +14°C° 0 mm 3 m/S 770 mmHg 42%
    15:00 +14°C° 0 mm 3 m/S 770 mmHg 41%
    16:00 +13°C° 0 mm 4 m/S 770 mmHg 47%
    17:00 +12°C° 0 mm 4 m/S 770 mmHg 54%
    18:00 +9°C° 0 mm 5 m/S 770 mmHg 60%
    19:00 +9°C° 0 mm 5 m/S 770 mmHg 63%
    20:00 +9°C° 0 mm 5 m/S 770 mmHg 67%
    21:00 +8°C° 0 mm 5 m/S 770 mmHg 70%
    22:00 +8°C° 0 mm 5 m/S 769 mmHg 73%
    23:00 +8°C° 0 mm 5 m/S 769 mmHg 75%
    Mehr zeigen